Location: Buckland
(65.9785°N, 161.1281°W)
Time: 15:23:38
(UTC+00:00)

Transit 4A - Pass Details

Date: 05 October 2022
Orbit: 871 x 972 km, 66.8° (Epoch: 29 November)

Event Time Altitude Azimuth Distance (km) Brightness Sun altitude
Exits shadow 10:55:01 66° 94° (E) 984 7.9 -28.7°
Drops below altitude 10° 11:00:07 10° 69° (ENE) 2,557 10.5 -28.7°
Sets 11:02:35 0° 68° (ENE) 3,488 11.3 -28.6°
